Weather History for Branson, MO

Change the Weather History Date:

Saturday, April 20, 2013

  Actual Average (KHRO) Record (KHRO)
Temperature  
Mean Temperature 50 °F 59 °F  
Max Temperature 64 °F 70 °F 92 °F (1987)
Min Temperature 37 °F 48 °F 28 °F (1956)
Degree Days  
Heating Degree Days 14 7  
Month to date heating degree days 185  
Since 1 July heating degree days 3865  
Cooling Degree Days 0 1  
Month to date cooling degree days 20  
Year to date cooling degree days 26  
Moisture  
Dew Point 30 °F    
Average Humidity 49    
Maximum Humidity 81    
Minimum Humidity 30    
Precipitation  
Precipitation 0.00 in 0.16 in 3.07 in (1977)
Month to date precipitation 2.69  
Year to date precipitation 11.68  
Snow  
Snow 0.00 in 0.00 in - ()
Month to date snowfall 0.3  
Since 1 July snowfall 11.5  
Snow Depth -    
Sea Level Pressure  
Sea Level Pressure 30.16 in    
Wind  
Wind Speed 2 mph (SE)    
Max Wind Speed 10 mph    
Max Gust Speed -    
Visibility 10 miles    
Events      
T = Trace of Precipitation, MM = Missing Value Source: NWS Daily Summary

Daily Weather History Graph

Daily Weather History Graph

Search for Another Location

Airport:

Trip Planner

Search our weather history database for the weather conditions in past years. The results will help you decide how hot, cold, wet, or windy it might be!

Date:

Astronomy

Apr. 20, 2013 Rise Set
Actual Time 6:32 AM CDT 7:51 PM CDT
Civil Twilight 6:05 AM CDT 8:18 PM CDT
Nautical Twilight 5:33 AM CDT 8:50 PM CDT
Astronomical Twilight 4:59 AM CDT 9:24 PM CDT
Moon 2:44 PM CDT 3:13 AM CDT
Length of Visible Light 14h 13m
Length of Day
13h 19m
Waxing Gibbous, 71% of the Moon is Illuminated
Apr 20
Waxing Gibbous
Apr 25
Full
May 2
Last Quarter
May 9
New
May 17
First Quarter

Hourly Weather History & Observations

Time (CDT) Temp. Windchill Dew Point Humidity Pressure Visibility Wind Dir Wind Speed Gust Speed Precip Events Conditions
12:15 AM 42.8 °F - 26.6 °F 53% 30.11 in 10.0 mi Calm Calm - N/A   Clear
12:55 AM 41.0 °F - 26.6 °F 57% 30.11 in 10.0 mi Calm Calm - N/A   Clear
1:35 AM 41.0 °F - 26.6 °F 57% 30.11 in 10.0 mi Calm Calm - N/A   Clear
1:55 AM 41.0 °F - 26.6 °F 57% 30.11 in 10.0 mi Calm Calm - N/A   Clear
2:15 AM 41.0 °F 39.0 °F 26.6 °F 57% 30.11 in 10.0 mi SW 3.5 mph - N/A   Clear
2:35 AM 41.0 °F - 26.6 °F 57% 30.11 in 10.0 mi Calm Calm - N/A   Clear
2:55 AM 41.0 °F - 26.6 °F 57% 30.12 in 10.0 mi Calm Calm - N/A   Clear
3:15 AM 41.0 °F 38.0 °F 26.6 °F 57% 30.12 in 10.0 mi SW 4.6 mph - N/A   Clear
3:35 AM 41.0 °F - 26.6 °F 57% 30.13 in 10.0 mi Calm Calm - N/A   Clear
3:55 AM 41.0 °F - 26.6 °F 57% 30.13 in 10.0 mi Calm Calm - N/A   Clear
4:15 AM 41.0 °F - 26.6 °F 57% 30.13 in 10.0 mi Calm Calm - N/A   Clear
4:35 AM 41.0 °F - 26.6 °F 57% 30.13 in 10.0 mi Calm Calm - N/A   Clear
4:55 AM 41.0 °F - 26.6 °F 57% 30.14 in 10.0 mi Calm Calm - N/A   Clear
5:15 AM 41.0 °F 39.0 °F 26.6 °F 57% 30.14 in 10.0 mi SW 3.5 mph - N/A   Partly Cloudy
5:35 AM 41.0 °F - 26.6 °F 57% 30.15 in 10.0 mi Calm Calm - N/A   Clear
5:55 AM 41.0 °F - 26.6 °F 57% 30.15 in 10.0 mi Calm Calm - N/A   Clear
6:15 AM 39.2 °F - 28.4 °F 65% 30.15 in 10.0 mi Calm Calm - N/A   Clear
6:35 AM 37.4 °F - 28.4 °F 70% 30.16 in 10.0 mi Calm Calm - N/A   Clear
6:45 AM 37.4 °F - 28.4 °F 70% 30.16 in 10.0 mi Calm Calm - N/A   Mostly Cloudy
7:45 AM 37.4 °F - 32.0 °F 81% 30.19 in 10.0 mi Calm Calm - N/A   Mostly Cloudy
8:55 AM 46.4 °F - 32.0 °F 57% 30.21 in 10.0 mi Calm Calm - N/A   Overcast
9:45 AM 50.0 °F - 30.2 °F 47% 30.22 in 10.0 mi Calm Calm - N/A   Overcast
10:56 AM 55.4 °F - 32.0 °F 41% 30.24 in 10.0 mi Calm Calm - N/A   Overcast
11:57 AM 59.0 °F - 32.0 °F 36% 30.23 in 10.0 mi Calm Calm - N/A   Overcast
12:45 PM 60.8 °F - 30.2 °F 31% 30.21 in 10.0 mi WSW 8.1 mph - N/A   Mostly Cloudy
1:45 PM 62.6 °F - 32.0 °F 32% 30.18 in 10.0 mi Calm Calm - N/A   Mostly Cloudy
2:49 PM 64.4 °F - 32.0 °F 30% 30.17 in 10.0 mi Variable 4.6 mph - N/A   Overcast
3:56 PM 64.4 °F - 32.0 °F 30% 30.15 in 10.0 mi Variable 4.6 mph - N/A   Overcast
4:47 PM 64.4 °F - 32.0 °F 30% 30.14 in 10.0 mi ESE 8.1 mph - N/A   Overcast
5:50 PM 64.4 °F - 33.8 °F 32% 30.13 in 10.0 mi East 9.2 mph - N/A   Overcast
6:51 PM 60.8 °F - 35.6 °F 39% 30.13 in 10.0 mi ESE 10.4 mph - N/A   Overcast
7:52 PM 59.0 °F - 33.8 °F 39% 30.15 in 10.0 mi ESE 8.1 mph - N/A   Overcast
8:46 PM 57.2 °F - 32.0 °F 38% 30.17 in 10.0 mi ESE 9.2 mph - N/A   Overcast
9:15 PM 57.2 °F - 32.0 °F 38% 30.18 in 10.0 mi ESE 9.2 mph - N/A   Clear
9:35 PM 57.2 °F - 32.0 °F 38% 30.20 in 10.0 mi ESE 9.2 mph - N/A   Clear
9:55 PM 57.2 °F - 32.0 °F 38% 30.21 in 10.0 mi SE 8.1 mph - N/A   Clear
10:15 PM 57.2 °F - 32.0 °F 38% 30.21 in 10.0 mi SE 8.1 mph - N/A   Clear
10:35 PM 57.2 °F - 32.0 °F 38% 30.21 in 10.0 mi ESE 8.1 mph - N/A   Clear
10:55 PM 55.4 °F - 33.8 °F 44% 30.22 in 10.0 mi SE 10.4 mph - N/A   Clear
11:15 PM 55.4 °F - 35.6 °F 47% 30.21 in 10.0 mi ESE 10.4 mph - N/A   Clear
11:35 PM 55.4 °F - 35.6 °F 47% 30.22 in 10.0 mi ESE 8.1 mph - N/A   Clear
11:55 PM 53.6 °F - 35.6 °F 51% 30.22 in 10.0 mi ESE 8.1 mph - N/A   Clear